Preview of NWS' New Version of Forecast
This preview is not operational and should not be used for support decisions.
Latest weather observations around

Joplin, Joplin Regional Airport (KJLN)

Using English Units (Switch to International System of Units)
Date/ Time (CDT) Wind (mph) Vis. (mi) Weather Sky Cond. Temp (°F) Rel. Humidity Wind Chill (°F) Heat Index (°F) Pressure Precip. (in)
Air Dwpt 6 hour Altimeter (inHg) Sea level (inHg) 1 hr 3 hr 6 hr
Max Min
Apr 19 13:53 ENE 8 10 Clear CLR 52 32     46%     30.43 30.43      
Apr 19 12:53 NNE 14 10 Clear CLR 50 30     46% 45   30.44 30.45      
Apr 19 11:53 N 8 10 Clear CLR 48 30     50% 44   30.45 30.45      
Apr 19 10:53 N 10 10 Clear CLR 47 29     49% 42   30.43 30.44      
Apr 19 09:53 N 16 10 Clear CLR 44 31     60% 37   30.41 30.42      
Apr 19 08:53 N 10 10 Clear CLR 43 33     68% 37   30.39 30.4      
Apr 19 07:53 NNW 7 10 Mostly Cloudy BKN036 37 31     78% 32   30.37 30.37      
Apr 19 06:53 NW 9 10 Cloudy OVC033 35 29     78% 28   30.35 30.35      
Apr 19 05:53 WNW 7 10 Mostly Clear FEW033 32 26     78% 26   30.32 30.33      
Apr 19 04:53 W 6 10 Clear CLR 33 27     78% 28   30.31 30.31      
Apr 19 03:53 WNW 3 10 Clear CLR 35 27     72% 32   30.29 30.29      
Apr 19 02:53 WNW 3 10 Clear CLR 37 26     64% 35   30.27 30.27      
Apr 19 01:53 N 8 10 Clear CLR 36 27     70% 30   30.27 30.27      
Apr 18 23:53 NW 6 10 Clear CLR 41 30     65% 37   30.23 30.23      
Apr 18 22:53 NW 10 10 Clear CLR 43 30     60% 37   30.22 30.22      
Apr 18 21:53 NW 5 10 Clear CLR 44 29     55% 41   30.21 30.21      
Apr 18 20:53 NNW 10 10 Clear CLR 46 29     51% 41   30.19 30.19      
Apr 18 19:53 NW 14 10 Clear CLR 48 28     46% 43   30.16        
Apr 18 18:53 NNW 17 10 Clear CLR 52 30     43%     30.14        
Apr 18 17:53 NW 17 10 Clear CLR 55 34     44%     30.11        
Apr 18 16:53   10 Clear CLR 61 34     36%     30.05        
Apr 18 15:53 NW 18 10 Mostly Clear FEW065 61 34     36%     30.03 30.01      
Apr 18 14:53   10 Mostly Cloudy BKN060 62 35     36%     30.02 30      
Apr 18 13:53   10 Mostly Cloudy BKN048 61 37     41%     30.01 29.99      
Apr 18 12:53 W 18 10 Partly Cloudy SCT043 60 40     47%     29.99 29.97      
Apr 18 11:53 NW 23 10 Mostly Clear and Windy FEW040 57 39     51%     30 29.98      
Apr 18 10:53   10 Partly Cloudy SCT039 56 39     53%     29.97 29.95      
Apr 18 09:53   10 Clear CLR 56 38     51%     29.94 29.92      
Apr 18 08:53 WNW 18 10 Clear CLR 55 37     51%     29.89 29.87      
Apr 18 07:53 W 18 10 Clear CLR 55 38     52%     29.86 29.83      
Apr 18 06:53 W 14 10 Clear CLR 55 39     55%     29.8 29.78      
Apr 18 05:53 W 16 10 Clear CLR 58 40     51%     29.74 29.71      
Apr 18 04:53 W 18 10 Cloudy OVC032 63 44     50%     29.68 29.65      
Apr 18 04:33   6 Haze OVC028 67 45     45%     29.65        
Apr 18 03:53 SW 28 10 Cloudy and Breezy OVC055 70 55     59%     29.6 29.57      
Apr 18 02:53   10 Mostly Clear FEW065 71 54     55%   70 29.57 29.53      
Apr 18 01:53 SSW 23 10 Clear and Windy CLR 71 53     53%   70 29.56 29.53      
Apr 18 00:53 S 22 10 Clear and Windy CLR 71 53     53%   70 29.54 29.51      
Apr 17 23:53 S 18 10 Clear CLR 71 54     55%   70 29.57 29.54      
Apr 17 22:53 S 17 10 Clear CLR 72 54     53%   71 29.61 29.58      
Apr 17 21:53 S 10 10 Clear CLR 71 55     57%   71 29.63 29.61      
Apr 17 20:53 S 15 10 Clear CLR 74 54     50%   73 29.62 29.6      
Apr 17 19:53 S 14 10 Clear CLR 76 54     47%   75 29.61 29.59      
Apr 17 17:53 S 11 10 Clear CLR 79 53     41%   78 29.63 29.61      
Apr 17 16:53 S 10 10 Clear CLR 79 52     39%   78 29.65 29.63      
Apr 17 15:53 S 16 10 Clear CLR 77 52     42%   76 29.67 29.66      
Apr 17 14:53 SSW 16 10 Clear CLR 79 52     39%   78 29.7 29.68      
Apr 17 13:53 S 15 10 Clear CLR 78 51     39%   77 29.73 29.71      
Apr 17 12:53 SSW 14 10 Clear CLR 78 52     40%   77 29.75 29.74      
Apr 17 11:53 S 15 10 Clear CLR 73 52     48%   72 29.77 29.75      
Apr 17 10:53 S 15 10 Clear CLR 70 51     51%     29.8 29.78      
Apr 17 09:53 SE 9 10 Clear CLR 62 44     52%     29.83 29.82      
Apr 17 08:53 ESE 8 10 Clear CLR 56 39     53%     29.85 29.85      
Apr 17 07:53 E 10 10 Clear CLR 49 34     56% 45   29.86 29.86      
Apr 17 06:53 ESE 8 9 Clear CLR 44 32     62% 40   29.86 29.86      
Apr 17 05:53 E 9 10 Clear CLR 44 31     60% 39   29.88 29.87      
Apr 17 04:53 E 8 10 Clear CLR 45 30     56% 41   29.9 29.9      
Apr 17 03:53 E 11 10 Clear CLR 45 31     58% 39   29.93 29.93      
Apr 17 02:53 E 9 10 Clear CLR 44 31     60% 39   29.96 29.96      
Apr 17 01:53 E 8 10 Clear CLR 45 31     58% 41   29.99 29.99      
Apr 17 00:53 E 8 10 Clear CLR 44 32     62% 40   30.01 30.01      
Apr 16 23:53 E 6 10 Clear CLR 45 31     58% 42   30.02 30.03      
Apr 16 22:53 ENE 6 10 Clear CLR 46 31     55% 43   30.04 30.04      
Apr 16 21:53 NE 3 10 Clear CLR 45 32     60% 44   30.05 30.06      
Apr 16 20:53 N 5 10 Clear CLR 50 29     44% 48   30.04 30.05      
Apr 16 19:53 Calm 10 Clear CLR 55 28     35%     30.03 30.03      
Apr 16 18:53 Calm 10 Clear CLR 57 29     34%     30.02 30.02      
Apr 16 17:53 W 7 10 Clear CLR 58 28     32%     30.04 30.04      
Apr 16 16:53 W 6 10 Clear CLR 57 26     30%     30.06 30.07      
Apr 16 15:53 WNW 7 10 Clear CLR 53 30     41%     30.1 30.11      
Apr 16 14:53 NW 8 10 Clear CLR 50 29     44% 47   30.15 30.16      
Jun 12 01:53 S 9 10 Clear CLR 73 65     76%   74 29.92 29.88      
Jun 11 21:53 S 10 10 Clear CLR 79 65     62%   80 29.9 29.86      
Jun 11 11:53   10 Partly Cloudy SCT032 84 71     65%   89 29.94 29.9      
Jun 11 10:53   10 Clear CLR 83 70     65%   87 29.93 29.89      
Jun 10 19:53 S 15 10 Clear CLR 81 67     62%   83 29.83 29.79      
Jun 10 17:53   10 Clear CLR 85 68     57%   88 29.82 29.79      
Jun 10 11:53   10 Clear CLR 82 67     60%   85 29.9 29.86      
Jun 09 14:53 S 13 10 Partly Cloudy SCT055 80 61     52%   81 29.91 29.89      
Jun 09 00:53 SE 3 10 Clear CLR 60 55     83%     29.94 29.91      
Jun 08 23:53 S 3 10 Clear   62 56     80%     29.94 29.92      
Jun 08 12:53 WNW 5 10 Clear CLR 79 53     41%   78 30.05 30.03      
Jun 08 06:53 Calm 10 Clear CLR 56 53     90%     30.06 30.04      
Jun 07 21:53 Calm 10 Clear CLR 64 56     75%     30.05 30.02      
Jun 07 14:53 NNE 9 10 Clear CLR 81 52     37%   80 30.06 30.03      
Jun 07 11:53 E 9 10 Mostly Clear FEW060 79 49     35%   78 30.09 30.07      
Jun 06 11:53 N 5 10 Clear CLR 82 64     55%   84 29.96 29.93      
Jun 06 10:53 N 5 10 Clear CLR 79 66     65%   80 29.96 29.92      
Notice The following observation data may not be complete
Jun 06 04:02   2 Fog/Mist CLR          %              
Jun 05 19:53 Calm 10 Mostly Cloudy BKN075 84 70     63%   88 29.83 29.79